[[{"header":{"parameterUnit":"m.s-1","parameterCategory":2,"la1":30.2991,"la2":30.254,"lo1":-89.0895,"lo2":-89.0444,"dy":0.0017,"dx":0.0017,"nx":28,"ny":28,"refTime":"2023-10-28T21:00:00:Z","depth":"0","parameterNumber":2,"parameterNumberName":"U-component_of_CURRENTS"},"data":[0,0,0,0,0,0,0,0,0,0,0,0,0,0,0,0,0,0,0,0,0,0,0,0,0,0,0,0,0,0,0,0,0,0,0,0,0,0,0,0,0,0,0,0,0,0,0,0,0,0,0,0,0,0,0,0,0,0,0.2553,0.2554,0,0.2613,0.2614,0.2614,0.2631,0.263,0.263,0.263,0.2657,0.2658,0.2659,0,0,0,0,0,0,0,0,0,0,0,0,0,0.2472,0.2473,0.2553,0.2554,0.2555,0.2613,0.2614,0.2615,0.2631,0.263,0.263,0.263,0.2657,0.2658,0.2659,0,0,0,0,0,0,0,0,0,0,0,0,0,0.2515,0.2474,0.2553,0.2571,0.2574,0.2613,0.2614,0.2615,0.2631,0.263,0.263,0.263,0.2657,0.2658,0.2659,0.2673,0,0,0.2664,0.2664,0,0,0,0,0,0,0,0,0.2513,0.2518,0.2568,0.257,0.2573,0.2616,0.2596,0.2633,0.2631,0.2607,0.263,0.263,0.2642,0.2645,0.2654,0.2674,0.2675,0.2664,0.2664,0.2665,0.2665,0,0,0,0,0,0,0,0.251,0.2516,0.2575,0.2569,0.2572,0.2584,0.2589,0.2603,0.2623,0.2609,0.2611,0.2621,0.2643,0.2653,0.2655,0.2676,0.2664,0.2665,0.2666,0.2666,0.2715,0.2715,0,0,0,0,0,0,0.2506,0.2513,0.2573,0.2577,0.2544,0.2586,0.2592,0.2601,0.2624,0.2628,0.2621,0.2621,0.2651,0.2653,0.2656,0.2692,0.2665,0.2666,0.2667,0.2714,0.2715,0.2715,0,0,0,0,0,0,0.2504,0.2511,0.257,0.2548,0.2556,0.2587,0.2597,0.2602,0.2616,0.2634,0.2636,0.263,0.2651,0.2654,0.2673,0.2692,0.2667,0.2668,0.2714,0.2714,0.2715,0.2753,0,0,0,0,0,0,0.2501,0.251,0.2515,0.2548,0.2558,0.2598,0.2598,0.2604,0.2623,0.2624,0.2643,0.2645,0.2651,0.2671,0.2674,0.2694,0.2669,0.2713,0.2714,0.2715,0.2751,0.2754,0.2758,0,0,0,0,0,0.2498,0.2508,0.2515,0.2523,0.2564,0.2599,0.2605,0.2625,0.2624,0.2634,0.2645,0.2644,0.2678,0.2672,0.2676,0.2697,0.2713,0.2714,0.2715,0.2749,0.2754,0.2758,0,0,0,0,0,0,0.2475,0.2512,0.252,0.254,0.2569,0.2602,0.2616,0.2627,0.2645,0.2644,0.2653,0.2657,0.2681,0.268,0.2673,0.2712,0.2695,0.2696,0.2719,0.2724,0.2727,0.2716,0.267,0,0,0,0,0,0.2473,0.2491,0.2526,0.2543,0.2557,0.2586,0.2602,0.2617,0.2638,0.2646,0.2659,0.2671,0.2688,0.2698,0.2711,0.2733,0.2762,0.2747,0.2751,0.2754,0.2746,0.2796,0.2804,0.2719,0.2719,0.2719,0,0,0.247,0.2492,0.2502,0.254,0.2562,0.2591,0.2595,0.2623,0.2646,0.2646,0.2675,0.2684,0.2696,0.2723,0.2734,0.2726,0.2803,0.2755,0.2758,0.2748,0.2798,0.2806,0.2814,0.272,0.2719,0.2719,0,0,0.2474,0.2491,0.2509,0.2537,0.2575,0.2595,0.2603,0.2639,0.2654,0.2682,0.2689,0.2704,0.2732,0.2745,0.2755,0.2782,0.2819,0.2792,0.2805,0.2855,0.2862,0.2869,0.2964,0.2979,0.2795,0.2796,0.2796,0,0.2469,0.2497,0.252,0.2548,0.2573,0.2597,0.2625,0.2647,0.2684,0.2701,0.2693,0.2741,0.2741,0.2783,0.2786,0.2791,0.2843,0.2792,0.2861,0.2868,0.2874,0.297,0.2986,0.2797,0.2797,0.2797,0.2797,0,0.2491,0.2517,0.2531,0.2574,0.2602,0.263,0.2666,0.269,0.2705,0.2729,0.277,0.2776,0.2809,0.2809,0.2802,0.2851,0.2886,0.2862,0.2853,0.2885,0.2984,0.3,0.28,0.28,0.2799,0.2798,0,0,0.247,0.2534,0.2538,0.2569,0.2618,0.2647,0.2683,0.2729,0.2765,0.2786,0.2831,0.2842,0.2855,0.2864,0.287,0.289,0.2984,0.2893,0.2895,0.2994,0.3145,0.3218,0.3244,0.2981,0.2983,0.2984,0.3214,0,0.2481,0.2533,0.2562,0.2616,0.265,0.2685,0.2725,0.2768,0.2801,0.2849,0.2861,0.2898,0.288,0.2897,0.2924,0.2969,0.302,0.2926,0.3091,0.3097,0.3163,0.3261,0.3186,0.3387,0.323,0.3232,0.3234,0,0.2489,0.2529,0.2577,0.2652,0.267,0.2702,0.2773,0.2813,0.2877,0.2908,0.2951,0.2966,0.3021,0.2974,0.3105,0.3057,0.3102,0.3124,0.3134,0.3192,0.3199,0.3318,0.3422,0.3349,0.3259,0.3257,0.3255,0,0.2468,0.2539,0.2577,0.2602,0.2686,0.2714,0.2756,0.2826,0.2877,0.2942,0.3001,0.3059,0.3135,0.3165,0.3251,0.3181,0.3402,0.3315,0.3434,0.3442,0.3402,0.3403,0.3451,0.3392,0.3392,0.3391,0.3391,0,0.2466,0.25,0.2571,0.2597,0.2648,0.2713,0.2775,0.2825,0.2917,0.2994,0.3038,0.3136,0.3184,0.3315,0.3321,0.3491,0.349,0.347,0.3509,0.3419,0.3419,0.337,0.3318,0.34,0.3398,0.3396,0.3395,0,0.2431,0.2477,0.253,0.2615,0.2637,0.2674,0.2777,0.2832,0.2938,0.3043,0.3069,0.3251,0.3439,0.3522,0.3637,0.3646,0.3651,0.3776,0.3704,0.3727,0.3702,0.3656,0.3592,0.3474,0.3916,0.3919,0.3922,0,0.2411,0.2436,0.2521,0.2547,0.2581,0.2646,0.2693,0.2808,0.2872,0.3118,0.3171,0.3416,0.3559,0.3838,0.3904,0.4008,0.3826,0.3986,0.3796,0.3732,0.3707,0.3488,0.3374,0.3782,0.3784,0.3785,0.3785,0,0.2371,0.2404,0.2442,0.2505,0.2551,0.2607,0.2685,0.274,0.2898,0.3033,0.3246,0.3384,0.3724,0.3849,0.4056,0.4075,0.3807,0.4012,0.3941,0.3619,0.3385,0.3281,0.3636,0.3795,0.3794,0.3794,0.3793,0.3793,0.2323,0.234,0.2397,0.2446,0.25,0.2545,0.2562,0.2683,0.2799,0.2981,0.3197,0.3408,0.3715,0.4001,0.4012,0.4047,0.3916,0.3924,0.3888,0.3683,0.35,0.3918,0.4113,0.4114,0.4115,0.4115,0.4116,0,0.2261,0.2294,0.2339,0.2386,0.2411,0.2471,0.2538,0.255,0.2653,0.29,0.3081,0.343,0.3624,0.3819,0.4016,0.3933,0.3651,0.3842,0.3478,0.3377,0.3777,0.3703,0.3822,0.3822,0.3822,0.3822,0.3822,0.3822,0.2227,0.2244,0.2274,0.228,0.2312,0.23,0.2313,0.237,0.2502,0.2729,0.295,0.3168,0.3573,0.3888,0.3913,0.382,0.3485,0.3394,0.3307,0.3588,0.3588,0.3589,0.3504,0.358,0.358,0.2738,0.2732,0.2728]},{"header":{"parameterUnit":"m.s-1","parameterCategory":2,"la1":30.2991,"la2":30.254,"lo1":-89.0895,"lo2":-89.0444,"dy":0.0017,"dx":0.0017,"nx":28,"ny":28,"refTime":"2023-10-28T21:00:00:Z","depth":"0","parameterNumber":3,"parameterNumberName":"V-component_of_CURRENTS"},"data":[0,0,0,0,0,0,0,0,0,0,0,0,0,0,0,0,0,0,0,0,0,0,0,0,0,0,0,0,0,0,0,0,0,0,0,0,0,0,0,0,0,0,0,0,0,0,0,0,0,0,0,0,0,0,0,0,0,0,-0.0373,-0.0374,0,-0.046,-0.0461,-0.0462,-0.0512,-0.0512,-0.0513,-0.0513,-0.0585,-0.0586,-0.0588,0,0,0,0,0,0,0,0,0,0,0,0,0,-0.0268,-0.027,-0.0373,-0.0374,-0.0375,-0.046,-0.0461,-0.0462,-0.0512,-0.0512,-0.0513,-0.0513,-0.0584,-0.0586,-0.0588,0,0,0,0,0,0,0,0,0,0,0,0,0,-0.0329,-0.027,-0.0373,-0.0412,-0.0416,-0.046,-0.0461,-0.0462,-0.0512,-0.0512,-0.0513,-0.0513,-0.0584,-0.0586,-0.0588,-0.0592,0,0,-0.0596,-0.0597,0,0,0,0,0,0,0,0,-0.0325,-0.0332,-0.0405,-0.0409,-0.0414,-0.0477,-0.0451,-0.0506,-0.0512,-0.0473,-0.0513,-0.0514,-0.0548,-0.0554,-0.0566,-0.0595,-0.0599,-0.0596,-0.0597,-0.0598,-0.0599,0,0,0,0,0,0,0,-0.0321,-0.0329,-0.0405,-0.0406,-0.0412,-0.0432,-0.044,-0.0461,-0.0505,-0.0477,-0.0481,-0.0494,-0.0551,-0.0564,-0.0568,-0.06,-0.0596,-0.0598,-0.0599,-0.06,-0.0666,-0.0667,0,0,0,0,0,0,-0.0313,-0.0325,-0.0403,-0.0408,-0.0372,-0.0433,-0.0443,-0.0455,-0.0505,-0.0514,-0.0493,-0.0496,-0.056,-0.0566,-0.0571,-0.0595,-0.0598,-0.06,-0.0602,-0.0666,-0.0666,-0.0667,0,0,0,0,0,0,-0.031,-0.0319,-0.0399,-0.037,-0.0382,-0.0434,-0.0448,-0.0456,-0.0472,-0.0518,-0.0527,-0.05,-0.056,-0.0568,-0.0594,-0.0597,-0.0601,-0.0604,-0.0666,-0.0666,-0.0667,-0.0631,0,0,0,0,0,0,-0.0306,-0.0317,-0.0319,-0.0369,-0.0383,-0.0417,-0.0448,-0.0458,-0.048,-0.0484,-0.0527,-0.0534,-0.0561,-0.0591,-0.0597,-0.0601,-0.0606,-0.0665,-0.0666,-0.0666,-0.0632,-0.0631,-0.0629,0,0,0,0,0,-0.0302,-0.0301,-0.0319,-0.0328,-0.0386,-0.0417,-0.0425,-0.0463,-0.048,-0.048,-0.0517,-0.0533,-0.0599,-0.0593,-0.06,-0.0604,-0.0665,-0.0666,-0.0666,-0.0633,-0.0631,-0.0629,0,0,0,0,0,0,-0.0255,-0.0308,-0.0328,-0.0343,-0.0375,-0.0426,-0.0431,-0.0458,-0.0488,-0.0491,-0.0535,-0.0544,-0.057,-0.0591,-0.0583,-0.0627,-0.0636,-0.0638,-0.0608,-0.0606,-0.0605,-0.0577,-0.0607,0,0,0,0,0,-0.0247,-0.0259,-0.031,-0.0319,-0.0334,-0.0381,-0.0398,-0.0424,-0.046,-0.0473,-0.0506,-0.0543,-0.0578,-0.0594,-0.0623,-0.0642,-0.0653,-0.0651,-0.065,-0.0649,-0.0632,-0.0683,-0.0685,-0.0669,-0.0669,-0.0669,0,0,-0.0231,-0.0261,-0.0268,-0.031,-0.0338,-0.0349,-0.0392,-0.0412,-0.0421,-0.0475,-0.0492,-0.0535,-0.0582,-0.0609,-0.0622,-0.0627,-0.0652,-0.065,-0.0648,-0.0632,-0.0684,-0.0686,-0.0687,-0.067,-0.067,-0.067,0,0,-0.0197,-0.0231,-0.0226,-0.0252,-0.0291,-0.0321,-0.0324,-0.0372,-0.0393,-0.0418,-0.0466,-0.051,-0.0551,-0.0594,-0.062,-0.0626,-0.0643,-0.0637,-0.0608,-0.0658,-0.066,-0.0661,-0.0643,-0.0643,-0.0637,-0.0637,-0.0637,0,-0.0171,-0.018,-0.0227,-0.0231,-0.0245,-0.0304,-0.0298,-0.0329,-0.0379,-0.0395,-0.0414,-0.0499,-0.0545,-0.0589,-0.0599,-0.0622,-0.063,-0.061,-0.0656,-0.0658,-0.066,-0.0641,-0.0642,-0.0636,-0.0636,-0.0636,-0.0636,0,-0.0138,-0.0145,-0.0144,-0.0169,-0.0188,-0.0193,-0.0244,-0.0261,-0.0295,-0.0336,-0.0382,-0.0452,-0.0499,-0.0533,-0.0569,-0.061,-0.06,-0.0647,-0.0656,-0.0659,-0.0639,-0.064,-0.0633,-0.0634,-0.0634,-0.0635,0,0,-0.0073,-0.011,-0.0108,-0.0108,-0.0155,-0.0164,-0.0179,-0.0212,-0.0212,-0.0283,-0.0286,-0.0388,-0.0431,-0.0463,-0.0524,-0.0577,-0.0601,-0.0613,-0.0616,-0.0584,-0.066,-0.0592,-0.0587,-0.0663,-0.0664,-0.0664,-0.0627,0,-0.0026,-0.0011,-0.0047,-0.0032,-0.0028,-0.0083,-0.0085,-0.0127,-0.0166,-0.0183,-0.0281,-0.0312,-0.0404,-0.042,-0.0493,-0.0564,-0.0608,-0.0603,-0.0669,-0.0669,-0.0604,-0.0589,-0.0573,-0.0535,-0.0628,-0.0628,-0.0629,0,0.0024,0.0026,0.0054,0.0043,0.0042,0.0045,0.0035,0.0021,-0.0033,-0.0062,-0.0129,-0.0197,-0.0273,-0.0353,-0.0483,-0.0473,-0.056,-0.0627,-0.0628,-0.0577,-0.0606,-0.0556,-0.0534,-0.0763,-0.0631,-0.0631,-0.0631,0,0.01,0.0098,0.0127,0.012,0.0099,0.0112,0.0104,0.0063,0.0078,0.0022,0.0044,-0.0089,-0.0095,-0.0259,-0.0392,-0.0443,-0.0507,-0.06,-0.0618,-0.0611,-0.0614,-0.0606,-0.0815,-0.0702,-0.0702,-0.0702,-0.0702,0,0.0162,0.0185,0.0171,0.0186,0.0237,0.0191,0.024,0.0213,0.0211,0.027,0.0121,0.0173,-0.0075,-0.0143,-0.0324,-0.0428,-0.0456,-0.0587,-0.0604,-0.0596,-0.0587,-0.08,-0.0922,-0.0701,-0.0701,-0.0702,-0.0702,0,0.0239,0.0225,0.0262,0.0264,0.0276,0.0312,0.0349,0.0391,0.0372,0.0459,0.0458,0.0391,0.0325,0.0101,-0.0103,-0.028,-0.0537,-0.0476,-0.0405,-0.0416,-0.0666,-0.0784,-0.093,-0.1026,-0.0498,-0.0496,-0.0495,0,0.028,0.0309,0.0338,0.038,0.0389,0.0437,0.049,0.0478,0.0543,0.0625,0.0701,0.0668,0.07,0.045,0.0115,-0.0157,-0.0414,-0.0342,-0.0466,-0.0653,-0.08,-0.0887,-0.0967,-0.0444,-0.0443,-0.0441,-0.044,0,0.0365,0.0374,0.0405,0.0499,0.0564,0.0633,0.0714,0.0797,0.0835,0.0949,0.1122,0.1163,0.0944,0.0709,0.0315,0.0076,-0.0487,-0.0317,-0.0569,-0.0806,-0.0859,-0.0967,-0.0454,-0.0427,-0.0428,-0.0429,-0.043,-0.043,0.0437,0.0483,0.0539,0.0631,0.0713,0.0845,0.095,0.107,0.1244,0.1454,0.1467,0.1597,0.1184,0.067,0.0325,-0.0334,-0.0359,-0.0571,-0.0698,-0.0769,-0.0877,-0.028,-0.0244,-0.0244,-0.0245,-0.0245,-0.0245,0,0.0541,0.0591,0.0676,0.0797,0.0924,0.0938,0.1119,0.1257,0.1526,0.1716,0.1893,0.1782,0.1268,0.0668,-0.0184,-0.0652,-0.0881,-0.0932,-0.1126,-0.1193,-0.0718,-0.0736,-0.0734,-0.0734,-0.0733,-0.0733,-0.0733,-0.0733,0.0602,0.0705,0.0747,0.097,0.107,0.1264,0.1389,0.1607,0.1776,0.2055,0.2153,0.2182,0.1719,0.0216,-0.0872,-0.1144,-0.1497,-0.1527,-0.1713,-0.1478,-0.1458,-0.1438,-0.1489,-0.1645,-0.1646,-0.2155,-0.2161,-0.2165]}],[{"header":{"parameterUnit":"m.s-1","parameterCategory":2,"la1":30.2991,"la2":30.254,"lo1":-89.0895,"lo2":-89.0444,"dy":0.0017,"dx":0.0017,"nx":28,"ny":28,"refTime":"2023-10-28T21:00:00:Z","depth":"2","parameterNumber":2,"parameterNumberName":"U-component_of_CURRENTS"},"data":[0,0,0,0,0,0,0,0,0,0,0,0,0,0,0,0,0,0,0,0,0,0,0,0,0,0,0,0,0,0,0,0,0,0,0,0,0,0,0,0,0,0,0,0,0,0,0,0,0,0,0,0,0,0,0,0,0,0,0.2383,0.2383,0,0.2419,0.242,0.242,0.2443,0.2444,0.2444,0.2444,0.2469,0.247,0.247,0,0,0,0,0,0,0,0,0,0,0,0,0,0.2292,0.2294,0.2383,0.2383,0.2384,0.2419,0.242,0.242,0.2443,0.2444,0.2444,0.2444,0.2469,0.247,0.247,0,0,0,0,0,0,0,0,0,0,0,0,0,0.2331,0.2294,0.2383,0.2399,0.2401,0.2419,0.242,0.242,0.2443,0.2444,0.2444,0.2444,0.2469,0.2469,0.247,0.2475,0,0,0.2473,0.2474,0,0,0,0,0,0,0,0,0.2329,0.2335,0.2396,0.2398,0.24,0.2426,0.2397,0.2438,0.2443,0.2428,0.2444,0.2444,0.2453,0.2455,0.2463,0.2476,0.2477,0.2473,0.2474,0.2474,0.2475,0,0,0,0,0,0,0,0.2326,0.2333,0.2398,0.2396,0.2399,0.239,0.2396,0.2405,0.244,0.243,0.2431,0.2433,0.2454,0.2462,0.2464,0.2477,0.2473,0.2474,0.2475,0.2475,0.2553,0.2554,0,0,0,0,0,0,0.2322,0.2331,0.2397,0.2399,0.2363,0.2391,0.2398,0.2418,0.244,0.2444,0.2433,0.2434,0.2461,0.2463,0.2465,0.2525,0.2474,0.2475,0.2476,0.2552,0.2553,0.2555,0,0,0,0,0,0,0.2321,0.2329,0.2396,0.2364,0.2371,0.2393,0.2415,0.2419,0.2442,0.2443,0.2447,0.2454,0.2461,0.2464,0.2485,0.2523,0.2476,0.2476,0.255,0.2552,0.2554,0.2609,0,0,0,0,0,0,0.2318,0.2328,0.2346,0.2364,0.2373,0.242,0.2415,0.242,0.2442,0.2444,0.2462,0.2463,0.2461,0.2484,0.2486,0.2524,0.2477,0.2548,0.2551,0.2553,0.2605,0.2613,0.262,0,0,0,0,0,0.2315,0.2333,0.2347,0.2355,0.2396,0.242,0.2425,0.2439,0.2443,0.246,0.2468,0.2464,0.2504,0.2485,0.2488,0.2527,0.2546,0.255,0.2553,0.2602,0.2612,0.2619,0,0,0,0,0,0,0.2303,0.2338,0.2353,0.2383,0.2407,0.2424,0.2442,0.2449,0.247,0.2476,0.2474,0.2477,0.2513,0.251,0.249,0.2559,0.2528,0.2532,0.2565,0.2573,0.258,0.2607,0.2478,0,0,0,0,0,0.2309,0.2336,0.2364,0.2392,0.2408,0.2429,0.2442,0.2454,0.2471,0.2481,0.249,0.2506,0.2527,0.2541,0.2553,0.2586,0.2608,0.2616,0.2623,0.2629,0.2653,0.2699,0.2713,0.2566,0.2566,0.2566,0,0,0.2312,0.2335,0.2351,0.2391,0.2415,0.244,0.2439,0.2468,0.2495,0.248,0.2519,0.2527,0.254,0.2578,0.2596,0.2583,0.2686,0.2633,0.2638,0.266,0.2705,0.2719,0.2732,0.2568,0.2568,0.2568,0,0,0.2319,0.2358,0.2378,0.2403,0.2439,0.2457,0.2469,0.2498,0.2523,0.2558,0.2557,0.2591,0.2615,0.2638,0.2652,0.2707,0.2717,0.271,0.2773,0.2818,0.283,0.2842,0.2903,0.2919,0.2719,0.2719,0.2719,0,0.2318,0.2355,0.2387,0.2411,0.2436,0.2467,0.2494,0.2525,0.2555,0.2584,0.258,0.2647,0.2652,0.2713,0.2737,0.2726,0.2755,0.2737,0.2828,0.2839,0.285,0.291,0.2927,0.2722,0.2721,0.2721,0.2721,0,0.2337,0.2371,0.2388,0.2436,0.2467,0.2498,0.2544,0.2582,0.2616,0.2644,0.2715,0.2733,0.2776,0.2787,0.2782,0.2864,0.2863,0.2826,0.2806,0.2868,0.2927,0.2944,0.2726,0.2725,0.2724,0.2723,0,0,0.2308,0.2386,0.2389,0.242,0.2485,0.2509,0.2575,0.2639,0.2693,0.2738,0.281,0.286,0.2879,0.2897,0.2901,0.2951,0.3052,0.293,0.2931,0.2993,0.3173,0.3094,0.3105,0.3026,0.3029,0.3032,0.3189,0,0.231,0.2359,0.24,0.2452,0.2487,0.2548,0.2606,0.2671,0.274,0.2815,0.2871,0.2934,0.2918,0.2953,0.3,0.3041,0.3098,0.3014,0.3103,0.3107,0.3029,0.3122,0.2903,0.3017,0.3206,0.3208,0.321,0,0.2303,0.2343,0.2397,0.2477,0.2499,0.2537,0.2649,0.2704,0.2822,0.2882,0.2967,0.3007,0.3108,0.307,0.32,0.3148,0.3174,0.3201,0.3206,0.3128,0.306,0.2983,0.3041,0.3239,0.3237,0.3235,0.3233,0,0.226,0.2331,0.2379,0.2407,0.2505,0.255,0.2606,0.2724,0.2794,0.2933,0.3011,0.3112,0.3186,0.3243,0.3303,0.3264,0.3437,0.3376,0.3336,0.3331,0.3161,0.3136,0.3463,0.3463,0.3463,0.3462,0.3462,0,0.2241,0.227,0.2365,0.2391,0.2454,0.2531,0.2622,0.2702,0.2835,0.2923,0.3038,0.313,0.3233,0.3331,0.3358,0.3419,0.3481,0.3384,0.3374,0.3174,0.3149,0.3341,0.3325,0.3468,0.3467,0.3466,0.3464,0,0.2184,0.2246,0.23,0.2404,0.2437,0.2483,0.2614,0.2679,0.2826,0.2952,0.3003,0.318,0.3307,0.34,0.3512,0.3491,0.3548,0.3539,0.3311,0.327,0.3405,0.339,0.3534,0.3532,0.3531,0.353,0.3529,0,0.216,0.2185,0.2292,0.2323,0.237,0.2454,0.251,0.2655,0.2729,0.2966,0.301,0.3197,0.3285,0.3453,0.3472,0.3536,0.3552,0.3337,0.3206,0.3441,0.3417,0.3403,0.339,0.302,0.3015,0.3011,0.3008,0,0.2108,0.2151,0.22,0.2272,0.2329,0.2397,0.2487,0.2536,0.271,0.283,0.2979,0.3079,0.3259,0.3231,0.332,0.3308,0.3309,0.3255,0.3584,0.3017,0.2963,0.2936,0.2939,0.2972,0.2976,0.2978,0.298,0.2982,0.2063,0.208,0.215,0.2207,0.2267,0.2314,0.2342,0.2439,0.2536,0.2669,0.282,0.2906,0.3001,0.3023,0.297,0.295,0.3153,0.3019,0.3029,0.3044,0.2937,0.2882,0.2859,0.2861,0.2864,0.2866,0.2868,0,0.1994,0.2025,0.2075,0.2139,0.216,0.2237,0.2303,0.23,0.2354,0.2506,0.2607,0.2476,0.2508,0.2592,0.2534,0.2559,0.2506,0.2438,0.2352,0.2393,0.2428,0.2285,0.2036,0.2033,0.203,0.2027,0,0,0.1961,0.1971,0.1996,0.2009,0.2057,0.2062,0.2077,0.2086,0.216,0.2158,0.2205,0.2413,0.2556,0.2257,0.2248,0.2135,0.2231,0.2055,0.274,0.2684,0.2714,0.2804,0.2636,0,0,0,0,0]},{"header":{"parameterUnit":"m.s-1","parameterCategory":2,"la1":30.2991,"la2":30.254,"lo1":-89.0895,"lo2":-89.0444,"dy":0.0017,"dx":0.0017,"nx":28,"ny":28,"refTime":"2023-10-28T21:00:00:Z","depth":"2","parameterNumber":3,"parameterNumberName":"V-component_of_CURRENTS"},"data":[0,0,0,0,0,0,0,0,0,0,0,0,0,0,0,0,0,0,0,0,0,0,0,0,0,0,0,0,0,0,0,0,0,0,0,0,0,0,0,0,0,0,0,0,0,0,0,0,0,0,0,0,0,0,0,0,0,0,-0.0043,-0.0044,0,-0.0114,-0.0115,-0.0116,-0.0176,-0.0177,-0.0177,-0.0178,-0.0273,-0.0275,-0.0277,0,0,0,0,0,0,0,0,0,0,0,0,0,0.003,0.0028,-0.0043,-0.0044,-0.0044,-0.0114,-0.0115,-0.0116,-0.0176,-0.0177,-0.0177,-0.0178,-0.0272,-0.0275,-0.0277,0,0,0,0,0,0,0,0,0,0,0,0,0,-0.002,0.0028,-0.0043,-0.0081,-0.0085,-0.0113,-0.0115,-0.0116,-0.0176,-0.0177,-0.0177,-0.0178,-0.0271,-0.0275,-0.0278,-0.0283,0,0,-0.0287,-0.0289,0,0,0,0,0,0,0,0,-0.0017,-0.0023,-0.0075,-0.0078,-0.0083,-0.0135,-0.0124,-0.0173,-0.0176,-0.0144,-0.0178,-0.0178,-0.0227,-0.0234,-0.0249,-0.0288,-0.0292,-0.0288,-0.029,-0.0291,-0.0292,0,0,0,0,0,0,0,-0.0013,-0.002,-0.0073,-0.0075,-0.008,-0.0098,-0.0106,-0.0134,-0.0183,-0.0147,-0.0151,-0.0155,-0.023,-0.0245,-0.0251,-0.0293,-0.0288,-0.029,-0.0292,-0.0294,-0.0369,-0.0369,0,0,0,0,0,0,0.0001,-0.0017,-0.0071,-0.0075,-0.0048,-0.0099,-0.0108,-0.0119,-0.0182,-0.0192,-0.0154,-0.0157,-0.024,-0.0248,-0.0255,-0.0278,-0.0291,-0.0294,-0.0296,-0.0369,-0.0369,-0.0369,0,0,0,0,0,0,0.0003,-0.0003,-0.0068,-0.0045,-0.0054,-0.0099,-0.0112,-0.012,-0.0144,-0.0187,-0.0198,-0.0169,-0.024,-0.025,-0.0279,-0.0282,-0.0295,-0.0298,-0.0369,-0.0369,-0.0369,-0.0317,0,0,0,0,0,0,0.0005,-0.0003,-0.0008,-0.0044,-0.0055,-0.0081,-0.0111,-0.0121,-0.0144,-0.0149,-0.0203,-0.0213,-0.0242,-0.0274,-0.0282,-0.0287,-0.0301,-0.0369,-0.0369,-0.0369,-0.0318,-0.0315,-0.0312,0,0,0,0,0,0.0008,0.0014,-0.0008,-0.0015,-0.0061,-0.008,-0.0088,-0.0123,-0.0144,-0.0148,-0.0185,-0.0211,-0.0282,-0.0277,-0.0286,-0.0291,-0.0368,-0.0369,-0.0369,-0.032,-0.0316,-0.0313,0,0,0,0,0,0,0.0043,0.0007,-0.0017,-0.0024,-0.0051,-0.009,-0.0097,-0.0122,-0.0156,-0.0164,-0.0209,-0.022,-0.0245,-0.0276,-0.0269,-0.0315,-0.0331,-0.0333,-0.029,-0.0287,-0.0284,-0.0311,-0.0303,0,0,0,0,0,0.0048,0.0038,0.0002,-0.0007,-0.0019,-0.0061,-0.0075,-0.0098,-0.013,-0.0146,-0.0183,-0.0223,-0.0252,-0.0275,-0.0302,-0.0328,-0.0357,-0.0339,-0.0336,-0.0333,-0.0363,-0.0414,-0.0419,-0.037,-0.037,-0.037,0,0,0.0056,0.0038,0.0029,-0.0,-0.0028,-0.0034,-0.0072,-0.0089,-0.0096,-0.015,-0.0173,-0.0209,-0.0255,-0.0279,-0.0295,-0.0308,-0.035,-0.0334,-0.0331,-0.0363,-0.0415,-0.042,-0.0424,-0.037,-0.037,-0.037,0,0,0.0081,0.0051,0.0053,0.0037,0.0007,-0.0015,-0.0018,-0.0058,-0.008,-0.0107,-0.0143,-0.0194,-0.0232,-0.0276,-0.03,-0.0303,-0.0326,-0.0297,-0.0313,-0.0361,-0.0366,-0.0371,-0.0355,-0.036,-0.0303,-0.0303,-0.0303,0,0.0093,0.0088,0.0052,0.0054,0.0048,-0.0003,0.0004,-0.0023,-0.0065,-0.0078,-0.0108,-0.0191,-0.0241,-0.0279,-0.0295,-0.03,-0.0304,-0.0317,-0.0357,-0.0363,-0.0369,-0.0353,-0.0358,-0.03,-0.0301,-0.0301,-0.0301,0,0.0117,0.0115,0.0117,0.01,0.009,0.0088,0.0053,0.0036,-0.0003,-0.0032,-0.0082,-0.0163,-0.0217,-0.024,-0.0282,-0.0337,-0.0314,-0.0338,-0.0365,-0.0371,-0.0353,-0.0359,-0.0297,-0.0298,-0.0299,-0.0299,0,0,0.015,0.0136,0.014,0.0144,0.0116,0.0117,0.0104,0.0083,0.0075,0.0006,-0.0012,-0.0121,-0.0173,-0.021,-0.0263,-0.034,-0.0385,-0.0366,-0.037,-0.0347,-0.0438,-0.0429,-0.0435,-0.0407,-0.0409,-0.0411,-0.0386,0,0.0179,0.0206,0.0187,0.0211,0.0219,0.018,0.0183,0.0158,0.0108,0.0082,-0.0019,-0.0062,-0.0151,-0.0187,-0.0275,-0.0354,-0.0409,-0.0387,-0.0442,-0.0443,-0.0433,-0.0447,-0.0418,-0.0397,-0.0393,-0.0394,-0.0395,0,0.0213,0.0228,0.0258,0.0274,0.0275,0.0282,0.027,0.0264,0.0212,0.0173,0.0093,0.0025,-0.0086,-0.017,-0.0323,-0.0295,-0.0377,-0.045,-0.045,-0.0481,-0.045,-0.0404,-0.0409,-0.0406,-0.0405,-0.0404,-0.0404,0,0.0263,0.0283,0.0312,0.0314,0.0319,0.0327,0.033,0.0292,0.0304,0.0224,0.0223,0.0085,0.0045,-0.0116,-0.0274,-0.0299,-0.0423,-0.0459,-0.0516,-0.0512,-0.0525,-0.052,-0.0581,-0.0581,-0.0581,-0.0581,-0.0581,0,0.0306,0.0333,0.0339,0.0357,0.0406,0.0386,0.0418,0.0393,0.0381,0.0416,0.0278,0.0273,0.0045,-0.0044,-0.0221,-0.0368,-0.0368,-0.0532,-0.0528,-0.0498,-0.0491,-0.0548,-0.0544,-0.058,-0.058,-0.058,-0.058,0,0.0351,0.0352,0.0393,0.0414,0.0429,0.0462,0.0506,0.0529,0.0505,0.0545,0.0532,0.0438,0.0307,0.0108,-0.0116,-0.0258,-0.0434,-0.0482,-0.04,-0.0391,-0.0498,-0.0492,-0.0555,-0.0555,-0.0555,-0.0556,-0.0556,0,0.0375,0.0399,0.0445,0.0479,0.049,0.0538,0.0582,0.0586,0.0625,0.0651,0.0693,0.0597,0.0532,0.0245,-0.005,-0.0313,-0.0373,-0.0439,-0.0533,-0.0517,-0.0506,-0.05,-0.0494,-0.0489,-0.0489,-0.0488,-0.0488,0,0.0423,0.0435,0.0471,0.0546,0.0598,0.0665,0.0731,0.0792,0.082,0.0866,0.0916,0.0867,0.0609,0.0329,-0.0018,-0.0204,-0.0411,-0.0439,-0.0451,-0.0509,-0.0457,-0.0445,-0.0441,-0.0484,-0.0484,-0.0485,-0.0485,-0.0485,0.0459,0.0496,0.0545,0.0616,0.0686,0.0783,0.0853,0.0932,0.103,0.1106,0.1079,0.1033,0.0725,0.0267,-0.0047,-0.0364,-0.0375,-0.0498,-0.0498,-0.05,-0.0506,-0.0459,-0.0482,-0.0483,-0.0483,-0.0483,-0.0484,0,0.0501,0.0544,0.0614,0.0702,0.0788,0.0821,0.095,0.1015,0.1138,0.1211,0.1238,0.0984,0.0677,0.0336,-0.0141,-0.0438,-0.0472,-0.0515,-0.0506,-0.0507,-0.0509,-0.0517,-0.0495,-0.0496,-0.0497,-0.0498,0,0,0.0524,0.0591,0.0627,0.0767,0.0842,0.0969,0.105,0.1147,0.122,0.1276,0.1276,0.1204,0.0791,0.045,0.0043,-0.0229,-0.0297,-0.0273,-0.0232,-0.0175,-0.0173,-0.0466,-0.0475,0,0,0,0,0]}],[{"header":{"parameterUnit":"m.s-1","parameterCategory":2,"la1":30.2991,"la2":30.254,"lo1":-89.0895,"lo2":-89.0444,"dy":0.0017,"dx":0.0017,"nx":28,"ny":28,"refTime":"2023-10-28T21:00:00:Z","depth":"4","parameterNumber":2,"parameterNumberName":"U-component_of_CURRENTS"},"data":[0,0,0,0,0,0,0,0,0,0,0,0,0,0,0,0,0,0,0,0,0,0,0,0,0,0,0,0,0,0,0,0,0,0,0,0,0,0,0,0,0,0,0,0,0,0,0,0,0,0,0,0,0,0,0,0,0,0,0.1329,0.1329,0,0.14,0.1401,0.1402,0.1466,0.1467,0.1467,0.1468,0.1535,0.1536,0.1538,0,0,0,0,0,0,0,0,0,0,0,0,0,0.1265,0.1266,0.1329,0.1329,0.133,0.14,0.1401,0.1402,0.1466,0.1467,0.1468,0.1468,0.1535,0.1536,0.1538,0,0,0,0,0,0,0,0,0,0,0,0,0,0.1311,0.1266,0.1329,0.137,0.1374,0.1399,0.1401,0.1402,0.1466,0.1467,0.1468,0.1469,0.1534,0.1536,0.1538,0.1529,0,0,0.1543,0.1544,0,0,0,0,0,0,0,0,0.1308,0.1313,0.1363,0.1367,0.1372,0.1424,0.1403,0.1444,0.1466,0.1432,0.1468,0.1469,0.1496,0.1501,0.1514,0.1532,0.1535,0.1543,0.1544,0.1545,0.1546,0,0,0,0,0,0,0,0.1305,0.1311,0.1358,0.1364,0.1369,0.139,0.1398,0.1411,0.1459,0.1435,0.144,0.1445,0.1499,0.1512,0.1516,0.1536,0.1543,0.1545,0.1546,0.1547,0.1652,0.1653,0,0,0,0,0,0,0.1292,0.1308,0.1356,0.136,0.1341,0.139,0.1399,0.1407,0.1459,0.1467,0.1444,0.1448,0.1509,0.1514,0.1519,0.1593,0.1545,0.1547,0.1548,0.165,0.1652,0.1654,0,0,0,0,0,0,0.129,0.1296,0.1353,0.1334,0.1343,0.139,0.1399,0.1408,0.1454,0.1466,0.1475,0.1485,0.151,0.1516,0.1563,0.1593,0.1548,0.1549,0.1648,0.165,0.1653,0.1688,0,0,0,0,0,0,0.1288,0.1295,0.1314,0.1334,0.1344,0.1388,0.1398,0.1409,0.1454,0.146,0.1502,0.1508,0.1511,0.1561,0.1565,0.1594,0.1551,0.1646,0.1649,0.1652,0.1685,0.1692,0.1698,0,0,0,0,0,0.1286,0.1302,0.1315,0.1321,0.1363,0.1388,0.1396,0.1433,0.1455,0.1479,0.1513,0.1508,0.1585,0.1564,0.1568,0.1599,0.1644,0.1648,0.1652,0.1682,0.1691,0.1698,0,0,0,0,0,0,0.1284,0.131,0.1325,0.1349,0.1376,0.1399,0.1428,0.145,0.1497,0.1512,0.1527,0.1535,0.159,0.1591,0.1567,0.1641,0.1615,0.162,0.1637,0.1645,0.1651,0.1659,0.1552,0,0,0,0,0,0.129,0.1309,0.1336,0.1355,0.1374,0.1408,0.143,0.1453,0.1486,0.151,0.1541,0.1574,0.1603,0.1622,0.1648,0.1682,0.1694,0.1707,0.1713,0.1719,0.1731,0.1763,0.1773,0.1667,0.1667,0.1666,0,0,0.1292,0.1309,0.1321,0.1357,0.1384,0.1414,0.1426,0.1465,0.1497,0.1507,0.1574,0.1601,0.162,0.1665,0.1689,0.1672,0.176,0.1724,0.1728,0.1737,0.1769,0.1779,0.1788,0.1669,0.1669,0.1668,0,0,0.1299,0.1326,0.1349,0.1374,0.1417,0.1436,0.1454,0.15,0.1535,0.1586,0.1609,0.1656,0.1699,0.1722,0.1735,0.1791,0.1795,0.1805,0.1839,0.1871,0.188,0.1887,0.1929,0.194,0.1803,0.1804,0.1804,0,0.131,0.1333,0.136,0.1389,0.1414,0.145,0.1482,0.1516,0.1574,0.1609,0.1615,0.1711,0.1724,0.178,0.1803,0.1805,0.183,0.1804,0.1878,0.1886,0.1893,0.1934,0.1946,0.1806,0.1805,0.1805,0.1805,0,0.1325,0.1359,0.1375,0.1421,0.1454,0.1485,0.1529,0.1577,0.162,0.1657,0.1739,0.1766,0.1823,0.1834,0.1835,0.1902,0.1907,0.1883,0.1853,0.1906,0.1946,0.1958,0.1809,0.1808,0.1807,0.1807,0,0,0.1315,0.1375,0.1385,0.1413,0.1475,0.1498,0.156,0.1623,0.1674,0.1736,0.1804,0.186,0.1894,0.1912,0.1927,0.1953,0.2024,0.1946,0.1947,0.198,0.2114,0.2015,0.2019,0.2015,0.2017,0.2018,0.2126,0,0.1326,0.1374,0.1406,0.146,0.1492,0.1544,0.1597,0.1662,0.172,0.1795,0.1845,0.192,0.1916,0.1958,0.1984,0.2012,0.2056,0.1999,0.2066,0.2069,0.1967,0.2028,0.2024,0.2134,0.2137,0.2139,0.214,0,0.1333,0.1365,0.1418,0.1485,0.1507,0.155,0.1641,0.1696,0.1801,0.1847,0.1929,0.1981,0.2056,0.2035,0.2119,0.2087,0.2118,0.2131,0.2135,0.2037,0.199,0.207,0.2161,0.216,0.2158,0.2157,0.2155,0,0.1302,0.1374,0.1414,0.1437,0.152,0.1566,0.1625,0.1727,0.1785,0.1905,0.1968,0.2049,0.2119,0.2152,0.2209,0.2172,0.2295,0.2236,0.2185,0.2179,0.2218,0.2209,0.2311,0.2311,0.2311,0.231,0.231,0,0.1286,0.1322,0.1409,0.1427,0.1493,0.1566,0.1652,0.1719,0.1828,0.1906,0.201,0.208,0.2156,0.2239,0.2248,0.2264,0.2334,0.2211,0.2201,0.2233,0.2224,0.2227,0.2216,0.2314,0.2313,0.2313,0.2312,0,0.1239,0.1295,0.1345,0.144,0.148,0.1533,0.1661,0.1715,0.1838,0.1943,0.1995,0.2135,0.2235,0.2314,0.2386,0.2322,0.2337,0.2338,0.2409,0.2399,0.2188,0.2177,0.2252,0.225,0.2248,0.2246,0.2244,0,0.1213,0.1238,0.1342,0.1378,0.1426,0.152,0.1582,0.1706,0.1761,0.1961,0.1996,0.217,0.2252,0.2281,0.2352,0.2384,0.2364,0.2357,0.2226,0.2199,0.2183,0.2176,0.2169,0.2241,0.224,0.224,0.2239,0,0.1165,0.1215,0.1252,0.1329,0.1397,0.146,0.1559,0.1586,0.1737,0.1869,0.1961,0.2038,0.2163,0.2211,0.2289,0.2294,0.233,0.2333,0.2335,0.2212,0.2186,0.217,0.2166,0.2231,0.2233,0.2233,0.2234,0,0.1133,0.1146,0.1209,0.1264,0.1342,0.1375,0.1436,0.151,0.1586,0.1789,0.182,0.2003,0.2142,0.2171,0.2225,0.2241,0.2182,0.2081,0.2095,0.2104,0.2005,0.1947,0.1927,0,0,0,0,0,0.1095,0.11,0.1143,0.119,0.1258,0.1305,0.1408,0.1468,0.1617,0.1637,0.1719,0.1829,0.1928,0.2016,0.2001,0.2156,0.2188,0.2128,0.2076,0.219,0.2198,0.2095,0,0,0,0,0,0,0.1068,0.1104,0.1112,0.112,0.1137,0.1203,0.1259,0.1356,0.1367,0.1528,0.1591,0.1721,0.1842,0.1925,0.197,0.1997,0.1927,0.2237,0.2232,0.2185,0.2192,0.22,0.2096,0,0,0,0,0]},{"header":{"parameterUnit":"m.s-1","parameterCategory":2,"la1":30.2991,"la2":30.254,"lo1":-89.0895,"lo2":-89.0444,"dy":0.0017,"dx":0.0017,"nx":28,"ny":28,"refTime":"2023-10-28T21:00:00:Z","depth":"4","parameterNumber":3,"parameterNumberName":"V-component_of_CURRENTS"},"data":[0,0,0,0,0,0,0,0,0,0,0,0,0,0,0,0,0,0,0,0,0,0,0,0,0,0,0,0,0,0,0,0,0,0,0,0,0,0,0,0,0,0,0,0,0,0,0,0,0,0,0,0,0,0,0,0,0,0,0.0202,0.0201,0,0.0152,0.0151,0.015,0.0113,0.0113,0.0113,0.0112,0.0036,0.0035,0.0033,0,0,0,0,0,0,0,0,0,0,0,0,0,0.0218,0.0218,0.0202,0.0201,0.0201,0.0152,0.0151,0.015,0.0113,0.0113,0.0113,0.0112,0.0037,0.0035,0.0033,0,0,0,0,0,0,0,0,0,0,0,0,0,0.0193,0.0218,0.0202,0.0177,0.0174,0.0152,0.0151,0.015,0.0113,0.0113,0.0113,0.0112,0.0038,0.0035,0.0033,0.0025,0,0,0.0024,0.0023,0,0,0,0,0,0,0,0,0.0195,0.0193,0.0181,0.0178,0.0175,0.0139,0.0129,0.0107,0.0113,0.0136,0.0112,0.0112,0.0069,0.0064,0.0055,0.0021,0.0018,0.0024,0.0023,0.0022,0.0021,0,0,0,0,0,0,0,0.0196,0.0194,0.0182,0.018,0.0177,0.0151,0.0148,0.0124,0.0105,0.0134,0.0131,0.0126,0.0067,0.0058,0.0053,0.0017,0.0024,0.0022,0.002,0.0019,-0.0025,-0.0024,0,0,0,0,0,0,0.0207,0.0196,0.0183,0.018,0.0184,0.0152,0.0147,0.015,0.0105,0.0098,0.0127,0.0125,0.0062,0.0056,0.005,0.0054,0.0022,0.0019,0.0018,-0.0025,-0.0025,-0.0024,0,0,0,0,0,0,0.0207,0.0206,0.0185,0.0187,0.0182,0.0152,0.0155,0.015,0.014,0.01,0.0093,0.0123,0.0062,0.0054,0.0034,0.005,0.0018,0.0015,-0.0026,-0.0025,-0.0024,0.0051,0,0,0,0,0,0,0.0208,0.0207,0.0211,0.0188,0.0183,0.0177,0.0156,0.0149,0.0138,0.0135,0.0095,0.0087,0.0061,0.0038,0.0031,0.0046,0.0013,-0.0026,-0.0025,-0.0025,0.0048,0.0054,0.006,0,0,0,0,0,0.0209,0.0219,0.0212,0.021,0.019,0.0178,0.0173,0.0149,0.0138,0.0138,0.0112,0.0088,0.0038,0.0036,0.0028,0.0042,-0.0027,-0.0026,-0.0025,0.0046,0.0053,0.006,0,0,0,0,0,0,0.0226,0.0216,0.0207,0.0213,0.0199,0.0172,0.0169,0.0154,0.0133,0.0131,0.0092,0.0083,0.0071,0.0045,0.0044,0.0031,0.0002,0.0002,0.0059,0.0065,0.0071,0.0086,0.0011,0,0,0,0,0,0.0233,0.024,0.0222,0.0226,0.0222,0.0197,0.0188,0.0175,0.0154,0.0144,0.0116,0.0088,0.0069,0.0058,0.0032,0.0026,-0.001,0.0029,0.0035,0.004,0.0047,0.0022,0.0027,-0.0021,-0.0021,-0.0021,0,0,0.0243,0.0236,0.0241,0.0231,0.0218,0.0218,0.0191,0.0185,0.0188,0.0139,0.0133,0.0104,0.007,0.0063,0.0056,0.0044,0.0028,0.0042,0.0046,0.005,0.0024,0.0029,0.0033,-0.0021,-0.0021,-0.0021,0,0,0.026,0.026,0.0266,0.026,0.0246,0.0235,0.0237,0.0214,0.0208,0.0199,0.0167,0.0152,0.0116,0.0101,0.0089,0.011,0.0058,0.0098,0.0143,0.012,0.0124,0.0127,0.0063,0.006,0.0105,0.0105,0.0105,0,0.0266,0.0277,0.0266,0.0268,0.0269,0.0248,0.0256,0.025,0.0223,0.0224,0.0207,0.0167,0.0139,0.0137,0.0146,0.0125,0.0086,0.0123,0.0129,0.0132,0.0134,0.0067,0.0062,0.0109,0.0108,0.0108,0.0107,0,0.0283,0.0294,0.0299,0.03,0.0301,0.0307,0.03,0.0302,0.0293,0.028,0.0274,0.0239,0.0214,0.0207,0.0184,0.0187,0.0144,0.0138,0.0116,0.0143,0.007,0.0064,0.0114,0.0113,0.0112,0.0111,0,0,0.029,0.0308,0.031,0.0323,0.0322,0.0327,0.0344,0.035,0.0364,0.0343,0.0348,0.0327,0.0301,0.0285,0.0254,0.0242,0.0215,0.0202,0.0199,0.0144,0.013,0.0091,0.008,0.0212,0.0212,0.0212,0.0064,0,0.0303,0.0327,0.0331,0.0361,0.0375,0.0376,0.0399,0.0404,0.0399,0.0397,0.0374,0.0361,0.0333,0.0321,0.0306,0.0239,0.0207,0.0254,0.0106,0.01,0.007,0.0075,0.0212,0.006,0.0058,0.0057,0.0056,0,0.0314,0.0333,0.0365,0.0406,0.0413,0.0429,0.0464,0.0479,0.0478,0.0473,0.0457,0.042,0.0393,0.0367,0.0272,0.0301,0.0221,0.0169,0.0162,0.0099,0.0053,0.003,0.0045,0.0046,0.0047,0.0047,0.0048,0,0.0327,0.0359,0.0392,0.0402,0.044,0.0463,0.0485,0.0501,0.0523,0.0511,0.051,0.0467,0.0433,0.0358,0.0238,0.0254,0.0118,0.0121,0.0003,-0.0003,0.0042,0.0041,0.005,0.005,0.0051,0.0051,0.0051,0,0.034,0.0367,0.0404,0.0424,0.0475,0.049,0.0539,0.0554,0.057,0.0591,0.0545,0.0533,0.0434,0.034,0.024,0.0091,0.0108,0.0005,-0.0033,0.0072,0.0076,0.0035,0.0036,0.0045,0.0047,0.0048,0.0049,0,0.0347,0.0368,0.0412,0.0462,0.0483,0.0519,0.0578,0.0611,0.062,0.0638,0.0634,0.0569,0.0446,0.0315,0.0164,0.0082,-0.0047,-0.0111,-0.0025,-0.0057,-0.0159,-0.0153,-0.0245,-0.0248,-0.025,-0.0251,-0.0253,0,0.0352,0.0375,0.044,0.047,0.0494,0.055,0.0596,0.0634,0.0664,0.0659,0.0665,0.0552,0.0487,0.0237,0.0103,-0.0118,-0.0139,-0.022,-0.0146,-0.0155,-0.0184,-0.0175,-0.0167,-0.0256,-0.0257,-0.0257,-0.0258,0,0.0362,0.0386,0.0424,0.0489,0.0539,0.0599,0.0659,0.0683,0.0721,0.0728,0.0683,0.056,0.0403,0.0227,0.0035,-0.0109,-0.0161,-0.024,-0.0236,-0.0167,-0.017,-0.0194,-0.0184,-0.0265,-0.0264,-0.0263,-0.0262,0,0.0369,0.0395,0.0445,0.0501,0.0566,0.0623,0.0659,0.0693,0.0724,0.0724,0.0701,0.055,0.0469,0.0226,0.0062,-0.0098,-0.0119,-0.0142,-0.0143,-0.0138,-0.0051,-0.0035,-0.0123,0,0,0,0,0,0.037,0.0398,0.0452,0.0514,0.058,0.0619,0.0692,0.0722,0.0755,0.0732,0.0723,0.0581,0.034,0.0238,0.0071,0.0014,-0.0161,-0.0187,-0.0192,-0.0303,-0.0295,-0.0213,0,0,0,0,0,0,0.0368,0.0415,0.0445,0.0513,0.0556,0.0632,0.0679,0.0704,0.0697,0.0705,0.0579,0.054,0.03,0.0429,0.0065,0.0017,-0.0007,-0.0294,-0.0297,-0.0308,-0.03,-0.0294,-0.0207,0,0,0,0,0]}]]